| time (UTC) | temp F | wind direction | speed MPH | gust MPH | rain 1hr in | rain 24hr in | rain mn in | humidity % | barometer mb |
| 20260901035953 | 67 | 52 | 0.0 | 0.0 | 0.00 | 0.00 | 0.00 | 45 | 1006.9 |
| 20260901034938 | 67 | 52 | 0.0 | 0.0 | 0.00 | 0.00 | 0.00 | 44 | 1006.9 |
| 20260901033940 | 68 | 52 | 0.0 | 0.0 | 0.00 | 0.00 | 0.00 | 46 | 1006.8 |
| 20260901033003 | 68 | 52 | 0.0 | 0.0 | 0.00 | 0.00 | 0.00 | 44 | 1006.8 |
| 20260901031948 | 69 | 52 | 0.0 | 0.0 | 0.00 | 0.00 | 0.00 | 43 | 1006.7 |
| 20260901025944 | 71 | 52 | 0.0 | 0.0 | 0.00 | 0.00 | 0.00 | 42 | 1006.8 |
| 20260901024948 | 73 | 52 | 0.0 | 0.0 | 0.00 | 0.00 | 0.00 | 42 | 1006.7 |
| 20260901023930 | 75 | 52 | 0.0 | 0.0 | 0.00 | 0.00 | 0.00 | 41 | 1006.8 |
| 20260901022936 | 77 | 52 | 0.0 | 0.0 | 0.00 | 0.00 | 0.00 | 40 | 1006.8 |
| 20260901021958 | 80 | 52 | 0.0 | 0.0 | 0.00 | 0.00 | 0.00 | 37 | 1006.9 |
| 20260901021001 | 82 | 52 | 0.0 | 0.0 | 0.00 | 0.00 | 0.00 | 37 | 1007.0 |
| 20260901015943 | 83 | 52 | 0.0 | 0.0 | 0.00 | 0.00 | 0.00 | 37 | 1007.1 |
| 20260901015004 | 84 | 52 | 0.0 | 0.0 | 0.00 | 0.00 | 0.00 | 35 | 1007.0 |
| 20260901013934 | 84 | 52 | 0.0 | 0.0 | 0.00 | 0.00 | 0.00 | 32 | 1007.0 |
| 20260901012938 | 85 | 52 | 0.0 | 3.0 | 0.00 | 0.00 | 0.00 | 33 | 1007.1 |
| 20260901012001 | 85 | 52 | 0.0 | 0.0 | 0.00 | 0.00 | 0.00 | 32 | 1007.1 |
| 20260901005937 | 86 | 52 | 0.0 | 3.0 | 0.00 | 0.00 | 0.00 | 31 | 1007.3 |
| 20260901004943 | 86 | 52 | 0.0 | 1.0 | 0.00 | 0.00 | 0.00 | 28 | 1007.3 |
| 20260901003931 | 86 | 52 | 0.0 | 4.0 | 0.00 | 0.00 | 0.00 | 30 | 1007.4 |
| 20260901002931 | 86 | 52 | 0.0 | 4.0 | 0.00 | 0.00 | 0.00 | 29 | 1007.4 |
| 20260901001933 | 86 | 52 | 1.0 | 5.0 | 0.00 | 0.00 | 0.00 | 29 | 1007.5 |
| 20260901000942 | 86 | 52 | 2.0 | 10.0 | 0.00 | 0.00 | 0.00 | 29 | 1007.7 |
| 20260831235929 | 86 | 52 | 1.0 | 9.0 | 0.00 | 0.00 | 0.00 | 27 | 1007.9 |
| 20260831234932 | 86 | 52 | 3.0 | 10.0 | 0.00 | 0.00 | 0.00 | 27 | 1008.0 |
| 20260831233954 | 86 | 52 | 2.0 | 7.0 | 0.00 | 0.00 | 0.00 | 25 | 1008.1 |
| 20260831232936 | 86 | 52 | 0.0 | 9.0 | 0.00 | 0.00 | 0.00 | 28 | 1008.3 |
| 20260831231942 | 85 | 53 | 4.0 | 10.0 | 0.00 | 0.00 | 0.00 | 29 | 1008.4 |
| 20260831230927 | 85 | 53 | 2.0 | 8.0 | 0.00 | 0.00 | 0.00 | 28 | 1008.7 |
| 20260831225932 | 85 | 52 | 2.0 | 6.0 | 0.00 | 0.00 | 0.00 | 30 | 1008.8 |
| 20260831224934 | 84 | 53 | 1.0 | 5.0 | 0.00 | 0.00 | 0.00 | 33 | 1009.0 |
| 20260831223941 | 83 | 52 | 2.0 | 7.0 | 0.00 | 0.00 | 0.00 | 29 | 1009.2 |
| 20260831222943 | 83 | 53 | 3.0 | 10.0 | 0.00 | 0.00 | 0.00 | 31 | 1009.4 |
| 20260831220943 | 82 | 52 | 0.0 | 5.0 | 0.00 | 0.00 | 0.00 | 31 | 1009.7 |
| 20260831215933 | 82 | 52 | 3.0 | 9.0 | 0.00 | 0.00 | 0.00 | 34 | 1009.9 |
| 20260831214955 | 81 | 53 | 1.0 | 6.0 | 0.00 | 0.00 | 0.00 | 32 | 1010.0 |
| 20260831213937 | 81 | 53 | 1.0 | 8.0 | 0.00 | 0.00 | 0.00 | 33 | 1010.2 |
| 20260831212939 | 80 | 53 | 4.0 | 8.0 | 0.00 | 0.00 | 0.00 | 34 | 1010.4 |
| 20260831211927 | 80 | 53 | 5.0 | 10.0 | 0.00 | 0.00 | 0.00 | 33 | 1010.5 |
| 20260831210935 | 80 | 53 | 2.0 | 8.0 | 0.00 | 0.00 | 0.00 | 36 | 1010.5 |
| 20260831205939 | 79 | 52 | 0.0 | 5.0 | 0.00 | 0.00 | 0.00 | 37 | 1010.7 |
| 20260831204940 | 79 | 52 | 2.0 | 7.0 | 0.00 | 0.00 | 0.00 | 37 | 1010.9 |
| 20260831203942 | 78 | 53 | 1.0 | 5.0 | 0.00 | 0.00 | 0.00 | 35 | 1011.1 |
| 20260831202933 | 78 | 52 | 0.0 | 5.0 | 0.00 | 0.00 | 0.00 | 37 | 1011.2 |
| 20260831201935 | 77 | 52 | 1.0 | 4.0 | 0.00 | 0.00 | 0.00 | 37 | 1011.4 |
| 20260831200943 | 76 | 53 | 0.0 | 0.0 | 0.00 | 0.00 | 0.00 | 38 | 1011.6 |
| 20260831195946 | 75 | 53 | 0.0 | 4.0 | 0.00 | 0.00 | 0.00 | 37 | 1011.8 |
| 20260831194933 | 74 | 53 | 0.0 | 4.0 | 0.00 | 0.00 | 0.00 | 39 | 1011.9 |
| 20260831193956 | 73 | 53 | 4.0 | 8.0 | 0.00 | 0.00 | 0.00 | 43 | 1012.0 |
| 20260831191932 | 72 | 52 | 2.0 | 5.0 | 0.00 | 0.00 | 0.00 | 42 | 1012.4 |
| 20260831190934 | 72 | 52 | 1.0 | 6.0 | 0.00 | 0.00 | 0.00 | 41 | 1012.5 |
| 20260831185941 | 71 | 52 | 0.0 | 4.0 | 0.00 | 0.00 | 0.00 | 42 | 1012.7 |
| 20260831184946 | 71 | 53 | 1.0 | 6.0 | 0.00 | 0.00 | 0.00 | 42 | 1012.9 |
| 20260831183929 | 71 | 52 | 1.0 | 3.0 | 0.00 | 0.00 | 0.00 | 44 | 1013.1 |
| 20260831182935 | 70 | 52 | 3.0 | 5.0 | 0.00 | 0.00 | 0.00 | 44 | 1013.1 |
| 20260831181946 | 70 | 53 | 1.0 | 3.0 | 0.00 | 0.00 | 0.00 | 45 | 1013.2 |
| 20260831180929 | 69 | 52 | 1.0 | 4.0 | 0.00 | 0.00 | 0.00 | 43 | 1013.2 |
| 20260831175931 | 69 | 52 | 0.0 | 0.0 | 0.00 | 0.00 | 0.00 | 43 | 1013.5 |
| 20260831174936 | 68 | 53 | 0.0 | 3.0 | 0.00 | 0.00 | 0.00 | 44 | 1013.6 |
| 20260831173944 | 68 | 52 | 2.0 | 4.0 | 0.00 | 0.00 | 0.00 | 46 | 1013.7 |
| 20260831172947 | 67 | 52 | 0.0 | 5.0 | 0.00 | 0.00 | 0.00 | 48 | 1013.7 |
| 20260831171931 | 67 | 53 | 0.0 | 2.0 | 0.00 | 0.00 | 0.00 | 47 | 1013.7 |
| 20260831170934 | 67 | 53 | 0.0 | 4.0 | 0.00 | 0.00 | 0.00 | 48 | 1013.8 |
| 20260831170001 | 66 | 53 | 0.0 | 0.0 | 0.00 | 0.00 | 0.00 | 46 | 1013.7 |
| 20260831164943 | 66 | 53 | 0.0 | 0.0 | 0.00 | 0.00 | 0.00 | 46 | 1013.7 |
| 20260831163926 | 65 | 52 | 0.0 | 0.0 | 0.00 | 0.00 | 0.00 | 46 | 1013.7 |
| 20260831162933 | 64 | 52 | 0.0 | 0.0 | 0.00 | 0.00 | 0.00 | 47 | 1013.9 |
| 20260831161941 | 64 | 53 | 0.0 | 0.0 | 0.00 | 0.00 | 0.00 | 49 | 1014.0 |
| 20260831160944 | 63 | 52 | 0.0 | 0.0 | 0.00 | 0.00 | 0.00 | 51 | 1014.0 |
| 20260831155948 | 62 | 52 | 0.0 | 0.0 | 0.00 | 0.00 | 0.00 | 51 | 1014.0 |
| 20260831154930 | 61 | 52 | 0.0 | 0.0 | 0.00 | 0.00 | 0.00 | 52 | 1014.1 |
| 20260831153941 | 60 | 53 | 0.0 | 0.0 | 0.00 | 0.00 | 0.00 | 52 | 1014.1 |
| 20260831152943 | 59 | 53 | 0.0 | 0.0 | 0.00 | 0.00 | 0.00 | 50 | 1014.2 |
| 20260831152005 | 59 | 53 | 0.0 | 0.0 | 0.00 | 0.00 | 0.00 | 51 | 1014.2 |
| 20260831150948 | 58 | 53 | 0.0 | 0.0 | 0.00 | 0.00 | 0.00 | 50 | 1014.1 |
| 20260831150009 | 58 | 53 | 0.0 | 0.0 | 0.00 | 0.00 | 0.00 | 51 | 1014.1 |
| 20260831144934 | 57 | 53 | 0.0 | 0.0 | 0.00 | 0.00 | 0.00 | 55 | 1014.1 |
| 20260831143941 | 57 | 52 | 0.0 | 2.0 | 0.00 | 0.00 | 0.00 | 53 | 1014.0 |
| 20260831142945 | 57 | 51 | 1.0 | 4.0 | 0.00 | 0.00 | 0.00 | 52 | 1014.0 |
| 20260831141948 | 56 | 51 | 0.0 | 0.0 | 0.00 | 0.00 | 0.00 | 53 | 1013.9 |
| 20260831140936 | 56 | 51 | 0.0 | 6.0 | 0.00 | 0.00 | 0.00 | 54 | 1013.9 |
| 20260831135939 | 55 | 51 | 1.0 | 6.0 | 0.00 | 0.00 | 0.00 | 53 | 1013.9 |
| 20260831133936 | 56 | 51 | 0.0 | 0.0 | 0.00 | 0.00 | 0.00 | 53 | 1013.8 |
| 20260831132940 | 56 | 51 | 0.0 | 8.0 | 0.00 | 0.00 | 0.00 | 53 | 1013.8 |
| 20260831131948 | 55 | 51 | 0.0 | 3.0 | 0.00 | 0.00 | 0.00 | 53 | 1013.8 |
| 20260831130950 | 56 | 51 | 0.0 | 1.0 | 0.00 | 0.00 | 0.00 | 54 | 1013.7 |
| 20260831124949 | 56 | 51 | 0.0 | 3.0 | 0.00 | 0.00 | 0.00 | 53 | 1013.7 |
| 20260831123953 | 56 | 51 | 1.0 | 6.0 | 0.00 | 0.00 | 0.00 | 52 | 1013.7 |
| 20260831122936 | 56 | 49 | 0.0 | 4.0 | 0.00 | 0.00 | 0.00 | 53 | 1013.7 |
| 20260831121944 | 56 | 49 | 0.0 | 4.0 | 0.00 | 0.00 | 0.00 | 52 | 1013.7 |
| 20260831120947 | 56 | 49 | 0.0 | 4.0 | 0.00 | 0.00 | 0.00 | 52 | 1013.7 |
| 20260831115930 | 56 | 49 | 0.0 | 1.0 | 0.00 | 0.00 | 0.00 | 52 | 1013.8 |
| 20260831114952 | 56 | 49 | 0.0 | 1.0 | 0.00 | 0.00 | 0.00 | 51 | 1013.9 |
| 20260831113943 | 57 | 49 | 0.0 | 0.0 | 0.00 | 0.00 | 0.00 | 51 | 1013.9 |
| 20260831112947 | 57 | 49 | 0.0 | 3.0 | 0.00 | 0.00 | 0.00 | 51 | 1013.8 |
| 20260831111930 | 57 | 49 | 0.0 | 5.0 | 0.00 | 0.00 | 0.00 | 51 | 1013.9 |
| 20260831110932 | 57 | 49 | 0.0 | 4.0 | 0.00 | 0.00 | 0.00 | 51 | 1013.9 |
| 20260831105959 | 57 | 49 | 0.0 | 5.0 | 0.00 | 0.00 | 0.00 | 51 | 1013.9 |
| 20260831104943 | 57 | 49 | 0.0 | 3.0 | 0.00 | 0.00 | 0.00 | 51 | 1013.9 |
| 20260831103945 | 57 | 48 | 0.0 | 0.0 | 0.00 | 0.00 | 0.00 | 51 | 1013.9 |
| 20260831102930 | 57 | 48 | 0.0 | 0.0 | 0.00 | 0.00 | 0.00 | 51 | 1014.0 |
| 20260831101940 | 57 | 48 | 0.0 | 0.0 | 0.00 | 0.00 | 0.00 | 51 | 1014.0 |
| 20260831100943 | 57 | 48 | 0.0 | 0.0 | 0.00 | 0.00 | 0.00 | 51 | 1014.1 |
| 20260831095948 | 57 | 49 | 0.0 | 0.0 | 0.00 | 0.00 | 0.00 | 51 | 1014.1 |
| 20260831095010 | 57 | 48 | 0.0 | 0.0 | 0.00 | 0.00 | 0.00 | 51 | 1014.1 |
| 20260831093932 | 57 | 48 | 0.0 | 0.0 | 0.00 | 0.00 | 0.00 | 51 | 1014.2 |
| 20260831092940 | 57 | 49 | 0.0 | 1.0 | 0.00 | 0.00 | 0.00 | 51 | 1014.3 |
| 20260831091943 | 58 | 49 | 0.0 | 3.0 | 0.00 | 0.00 | 0.00 | 51 | 1014.4 |
| 20260831090929 | 58 | 48 | 0.0 | 0.0 | 0.00 | 0.00 | 0.00 | 51 | 1014.5 |
| 20260831085933 | 58 | 48 | 0.0 | 0.0 | 0.00 | 0.00 | 0.00 | 51 | 1014.5 |
| 20260831085000 | 58 | 48 | 0.0 | 0.0 | 0.00 | 0.00 | 0.00 | 50 | 1014.6 |
| 20260831083942 | 58 | 48 | 0.0 | 7.0 | 0.00 | 0.00 | 0.00 | 50 | 1014.7 |
| 20260831082929 | 58 | 45 | 0.0 | 1.0 | 0.00 | 0.00 | 0.00 | 51 | 1014.7 |
| 20260831081935 | 58 | 46 | 0.0 | 2.0 | 0.00 | 0.00 | 0.00 | 52 | 1014.7 |
| 20260831080945 | 58 | 46 | 0.0 | 3.0 | 0.00 | 0.00 | 0.00 | 52 | 1014.7 |
| 20260831075929 | 58 | 46 | 0.0 | 0.0 | 0.00 | 0.00 | 0.00 | 52 | 1014.7 |
| 20260831074932 | 58 | 45 | 0.0 | 0.0 | 0.00 | 0.00 | 0.00 | 53 | 1014.7 |
| 20260831073934 | 58 | 45 | 0.0 | 0.0 | 0.00 | 0.00 | 0.00 | 53 | 1014.7 |
| 20260831072941 | 58 | 45 | 0.0 | 0.0 | 0.00 | 0.00 | 0.00 | 53 | 1014.9 |
| 20260831071944 | 58 | 45 | 0.0 | 1.0 | 0.00 | 0.00 | 0.00 | 54 | 1014.8 |
| 20260831070928 | 57 | 45 | 0.0 | 5.0 | 0.00 | 0.00 | 0.00 | 54 | 1014.9 |
| 20260831065933 | 57 | 45 | 0.0 | 0.0 | 0.00 | 0.00 | 0.00 | 54 | 1014.9 |
| 20260831065000 | 57 | 45 | 0.0 | 2.0 | 0.00 | 0.00 | 0.00 | 55 | 1014.9 |
| 20260831063942 | 56 | 45 | 0.0 | 2.0 | 0.00 | 0.00 | 0.00 | 56 | 1014.9 |
| 20260831062946 | 56 | 45 | 0.0 | 0.0 | 0.00 | 0.00 | 0.00 | 57 | 1014.9 |
| 20260831061930 | 56 | 45 | 0.0 | 0.0 | 0.00 | 0.00 | 0.00 | 57 | 1015.0 |
| 20260831060935 | 56 | 45 | 0.0 | 0.0 | 0.00 | 0.00 | 0.00 | 56 | 1015.0 |
| 20260831055939 | 57 | 45 | 0.0 | 0.0 | 0.00 | 0.00 | 0.00 | 56 | 1015.0 |
| 20260831054942 | 57 | 45 | 0.0 | 0.0 | 0.00 | 0.00 | 0.00 | 57 | 1015.0 |
| 20260831053946 | 57 | 45 | 0.0 | 0.0 | 0.00 | 0.00 | 0.00 | 56 | 1015.1 |
| 20260831052934 | 57 | 45 | 0.0 | 0.0 | 0.00 | 0.00 | 0.00 | 57 | 1015.1 |
| 20260831051009 | 57 | 45 | 0.0 | 0.0 | 0.00 | 0.00 | 0.00 | 57 | 1015.1 |
| 20260831045930 | 57 | 45 | 0.0 | 0.0 | 0.00 | 0.00 | 0.00 | 57 | 1015.2 |
| 20260831044934 | 57 | 45 | 0.0 | 0.0 | 0.00 | 0.00 | 0.00 | 57 | 1015.2 |
| 20260831043958 | 57 | 45 | 0.0 | 0.0 | 0.00 | 0.00 | 0.00 | 57 | 1015.2 |
| 20260831042943 | 57 | 45 | 0.0 | 0.0 | 0.00 | 0.00 | 0.00 | 57 | 1015.2 |
| 20260831041929 | 58 | 45 | 0.0 | 0.0 | 0.00 | 0.00 | 0.00 | 56 | 1015.2 |
| 20260831040935 | 58 | 45 | 0.0 | 0.0 | 0.00 | 0.00 | 0.00 | 56 | 1015.3 |